Time,TemperatureF,DewpointF,PressureIn,WindDirection,WindDirectionDegrees,WindSpeedMPH,WindSpeedGustMPH,Humidity,HourlyPrecipIn,Conditions,Clouds,dailyrainin,SoftwareType,DateUTC
2013-04-18 00:00:00,47.7,23.4,30.25,East,90,0.0,3.0,38,0.00,,---,0.00,VWS V14.01,2013-04-18 04:00:00,
2013-04-18 00:30:00,46.4,22.2,30.25,East,90,0.0,0.0,38,0.00,,---,0.00,VWS V14.01,2013-04-18 04:30:00,
2013-04-18 01:00:00,44.9,20.9,30.26,East,90,0.0,0.0,38,0.00,,---,0.00,VWS V14.01,2013-04-18 05:00:00,
2013-04-18 01:30:00,44.3,20.9,30.28,East,90,0.0,0.0,39,0.00,,---,0.00,VWS V14.01,2013-04-18 05:30:00,
2013-04-18 02:00:00,43.3,20.0,30.30,East,90,0.0,0.0,39,0.00,,---,0.00,VWS V14.01,2013-04-18 06:00:00,
2013-04-18 02:30:00,42.3,19.1,30.29,East,90,0.0,0.0,39,0.00,,---,0.00,VWS V14.01,2013-04-18 06:30:00,
2013-04-18 03:00:00,41.6,18.5,30.28,East,90,0.0,0.0,39,0.00,,---,0.00,VWS V14.01,2013-04-18 07:00:00,
2013-04-18 03:30:00,40.8,17.8,30.27,East,90,0.0,0.0,39,0.00,,---,0.00,VWS V14.01,2013-04-18 07:30:00,
2013-04-18 04:00:00,40.6,17.6,30.28,East,90,0.0,0.0,39,0.00,,---,0.00,VWS V14.01,2013-04-18 08:00:00,
2013-04-18 04:30:00,39.9,17.0,30.30,East,90,0.0,0.0,39,0.00,,---,0.00,VWS V14.01,2013-04-18 08:30:00,
2013-04-18 05:00:00,39.9,17.5,30.31,East,90,0.0,3.0,40,0.00,,---,0.00,VWS V14.01,2013-04-18 09:00:00,
2013-04-18 05:30:00,39.8,17.5,30.30,East,90,0.0,1.0,40,0.00,,---,0.00,VWS V14.01,2013-04-18 09:30:00,
2013-04-18 06:00:00,39.1,16.8,30.29,East,90,0.0,0.0,40,0.00,,---,0.00,VWS V14.01,2013-04-18 10:00:00,
2013-04-18 06:30:00,38.8,16.6,30.31,East,90,0.0,1.0,40,0.00,,---,0.00,VWS V14.01,2013-04-18 10:30:00,
2013-04-18 07:00:00,38.6,16.4,30.30,East,90,0.0,1.0,40,0.00,,---,0.00,VWS V14.01,2013-04-18 11:00:00,
2013-04-18 07:30:00,38.5,16.3,30.30,East,90,0.0,0.0,40,0.00,,---,0.00,VWS V14.01,2013-04-18 11:30:00,
2013-04-18 08:00:00,39.6,17.3,30.32,East,90,0.0,2.0,40,0.00,,---,0.00,VWS V14.01,2013-04-18 12:00:00,
2013-04-18 08:30:00,41.2,18.7,30.32,East,90,0.0,2.0,40,0.00,,---,0.00,VWS V14.01,2013-04-18 12:30:00,
2013-04-18 09:00:00,46.2,22.0,30.32,East,90,0.0,2.0,38,0.00,,---,0.00,VWS V14.01,2013-04-18 13:00:00,
2013-04-18 09:30:00,50.2,24.3,30.33,East,90,2.0,6.0,36,0.00,,---,0.00,VWS V14.01,2013-04-18 13:30:00,
2013-04-18 10:00:00,52.9,26.7,30.33,ENE,68,3.0,10.0,36,0.00,,---,0.00,VWS V14.01,2013-04-18 14:00:00,
2013-04-18 10:30:00,56.3,28.3,30.32,East,90,3.0,12.0,34,0.00,,---,0.00,VWS V14.01,2013-04-18 14:30:00,
2013-04-18 11:00:00,57.2,29.1,30.32,SE,135,5.0,15.0,34,0.00,,---,0.00,VWS V14.01,2013-04-18 15:00:00,
2013-04-18 11:30:00,57.6,29.5,30.33,SSE,158,7.0,20.0,34,0.00,,---,0.00,VWS V14.01,2013-04-18 15:30:00,
2013-04-18 12:00:00,57.3,29.2,30.33,SSE,158,7.0,18.0,34,0.00,,---,0.00,VWS V14.01,2013-04-18 16:00:00,
2013-04-18 12:30:00,57.5,29.4,30.34,SSE,158,8.0,19.0,34,0.00,,---,0.00,VWS V14.01,2013-04-18 16:30:00,
2013-04-18 13:00:00,57.6,29.5,30.33,SE,135,6.0,15.0,34,0.00,,---,0.00,VWS V14.01,2013-04-18 17:00:00,
2013-04-18 13:30:00,56.0,28.0,30.31,SE,135,8.0,19.0,34,0.00,,---,0.00,VWS V14.01,2013-04-18 17:30:00,
2013-04-18 14:00:00,55.0,27.2,30.30,SSE,158,7.0,19.0,34,0.00,,---,0.00,VWS V14.01,2013-04-18 18:00:00,
2013-04-18 14:30:00,54.7,26.9,30.30,SSE,158,7.0,19.0,34,0.00,,---,0.00,VWS V14.01,2013-04-18 18:30:00,
2013-04-18 15:00:00,55.3,27.4,30.30,SE,135,7.0,17.0,34,0.00,,---,0.00,VWS V14.01,2013-04-18 19:00:00,
2013-04-18 15:30:00,55.3,27.4,30.28,SSE,158,9.0,22.0,34,0.00,,---,0.00,VWS V14.01,2013-04-18 19:30:00,
2013-04-18 16:00:00,54.2,27.2,30.28,SE,135,6.0,17.0,35,0.00,,---,0.00,VWS V14.01,2013-04-18 20:00:00,
2013-04-18 16:30:00,54.1,27.1,30.27,SSE,158,6.0,17.0,35,0.00,,---,0.00,VWS V14.01,2013-04-18 20:30:00,
2013-04-18 17:00:00,53.3,26.4,30.25,SSE,158,7.0,16.0,35,0.00,,---,0.00,VWS V14.01,2013-04-18 21:00:00,
2013-04-18 17:30:00,53.2,26.3,30.24,SSE,158,6.0,15.0,35,0.00,,---,0.00,VWS V14.01,2013-04-18 21:30:00,
2013-04-18 18:00:00,52.2,26.1,30.24,SE,135,5.0,16.0,36,0.00,,---,0.00,VWS V14.01,2013-04-18 22:00:00,
2013-04-18 18:30:00,51.6,25.5,30.23,SE,135,4.0,11.0,36,0.00,,---,0.00,VWS V14.01,2013-04-18 22:30:00,
2013-04-18 19:00:00,51.3,25.9,30.21,SSE,158,3.0,12.0,37,0.00,,---,0.00,VWS V14.01,2013-04-18 23:00:00,
2013-04-18 19:30:00,51.1,25.8,30.20,SE,135,4.0,10.0,37,0.00,,---,0.00,VWS V14.01,2013-04-18 23:30:00,
2013-04-18 20:00:00,50.7,25.4,30.19,SE,135,3.0,10.0,37,0.00,,---,0.00,VWS V14.01,2013-04-19 00:00:00,
2013-04-18 20:30:00,50.4,25.8,30.19,SE,135,2.0,9.0,38,0.00,,---,0.00,VWS V14.01,2013-04-19 00:30:00,
2013-04-18 21:00:00,50.1,25.5,30.19,SE,135,2.0,6.0,38,0.00,,---,0.00,VWS V14.01,2013-04-19 01:00:00,
2013-04-18 21:30:00,49.9,25.3,30.18,ESE,112,2.0,6.0,38,0.00,,---,0.00,VWS V14.01,2013-04-19 01:30:00,
2013-04-18 22:00:00,49.9,25.3,30.17,SE,135,2.0,7.0,38,0.00,,---,0.00,VWS V14.01,2013-04-19 02:00:00,
2013-04-18 22:30:00,49.8,25.2,30.16,SE,135,2.0,9.0,38,0.00,,---,0.00,VWS V14.01,2013-04-19 02:30:00,
2013-04-18 23:00:00,49.9,25.3,30.14,SSE,158,2.0,7.0,38,0.00,,---,0.00,VWS V14.01,2013-04-19 03:00:00,
2013-04-18 23:30:00,50.2,25.6,30.12,SSE,158,2.0,7.0,38,0.00,,---,0.00,VWS V14.01,2013-04-19 03:30:00,